Location: Unnamed
(55.7043°N, 37.5561°E)
Time: 02:03:05
(UTC+03:00)

ISS - Pass Details

Date: 22 November 2023
Orbit: 414 x 422 km, 51.6° (Epoch: 01 March)

Event Time Altitude Azimuth Distance (km) Brightness Sun altitude
Rises 17:40:34 0° 222° (SW) 2,400 1.2 -11.7°
Reaches altitude 10° 17:42:57 10° 207° (SSW) 1,540 -0.2 -12.1°
Maximum altitude 17:45:42 22° 154° (SSE) 1,002 -1.9 -12.4°
Enters shadow 17:47:33 15° 113° (ESE) 1,279 -1.8 -12.7°
